TimeEDT,TemperatureF,Dew PointF,Humidity,Sea Level PressureIn,VisibilityMPH,Wind Direction,Wind SpeedMPH,Gust SpeedMPH,PrecipitationIn,Events,Conditions,WindDirDegrees,DateUTC
12:53 AM,46.9,21.0,36,30.22,10.0,WNW,8.1,-,N/A,,Clear,290,2013-03-15 04:53:00
1:53 AM,43.0,25.0,49,30.21,10.0,Calm,Calm,-,N/A,,Mostly Cloudy,0,2013-03-15 05:53:00
2:53 AM,37.9,24.1,57,30.22,10.0,Calm,Calm,-,N/A,,Clear,0,2013-03-15 06:53:00
3:53 AM,35.1,25.0,67,30.20,10.0,Calm,Calm,-,N/A,,Clear,0,2013-03-15 07:53:00
4:53 AM,37.9,23.0,55,30.21,10.0,Calm,Calm,-,N/A,,Clear,0,2013-03-15 08:53:00
5:53 AM,36.0,23.0,59,30.24,10.0,West,3.5,-,N/A,,Clear,260,2013-03-15 09:53:00
6:53 AM,32.0,25.0,75,30.24,10.0,Calm,Calm,-,N/A,,Clear,0,2013-03-15 10:53:00
7:53 AM,30.9,25.0,79,30.25,10.0,Calm,Calm,-,N/A,,Clear,0,2013-03-15 11:53:00
8:53 AM,39.9,28.9,65,30.25,10.0,Calm,Calm,-,N/A,,Clear,0,2013-03-15 12:53:00
9:53 AM,48.0,28.9,48,30.25,10.0,Calm,Calm,-,N/A,,Clear,0,2013-03-15 13:53:00
10:53 AM,55.0,27.0,34,30.24,10.0,Variable,3.5,-,N/A,,Clear,0,2013-03-15 14:53:00
11:53 AM,59.0,28.9,32,30.22,10.0,SW,5.8,-,N/A,,Clear,220,2013-03-15 15:53:00
12:53 PM,63.0,30.9,30,30.18,10.0,West,6.9,-,N/A,,Clear,280,2013-03-15 16:53:00
1:53 PM,66.9,32.0,27,30.14,10.0,West,11.5,17.3,N/A,,Clear,280,2013-03-15 17:53:00
2:53 PM,69.1,32.0,25,30.09,10.0,WNW,10.4,17.3,N/A,,Clear,290,2013-03-15 18:53:00
3:53 PM,72.0,34.0,25,30.05,10.0,SW,15.0,23.0,N/A,,Clear,230,2013-03-15 19:53:00
4:53 PM,72.0,34.0,25,30.03,10.0,WSW,17.3,23.0,N/A,,Clear,240,2013-03-15 20:53:00
5:53 PM,72.0,34.0,25,30.01,10.0,WSW,12.7,24.2,N/A,,Clear,250,2013-03-15 21:53:00
6:53 PM,70.0,35.1,28,30.01,10.0,WSW,11.5,-,N/A,,Clear,240,2013-03-15 22:53:00
7:53 PM,66.0,36.0,33,30.01,10.0,SSW,5.8,-,N/A,,Clear,210,2013-03-15 23:53:00
8:53 PM,64.9,37.0,36,30.01,10.0,SW,9.2,-,N/A,,Clear,220,2013-03-16 00:53:00
9:53 PM,63.0,37.0,38,30.01,10.0,SW,10.4,-,N/A,,Clear,230,2013-03-16 01:53:00
10:53 PM,62.1,37.9,41,30.02,10.0,SW,11.5,-,N/A,,Clear,220,2013-03-16 02:53:00
11:53 PM,59.0,37.9,46,30.01,10.0,SW,6.9,-,N/A,,Clear,230,2013-03-16 03:53:00